Time,TemperatureF,DewpointF,PressureIn,WindDirection,WindDirectionDegrees,WindSpeedMPH,WindSpeedGustMPH,Humidity,HourlyPrecipIn,Conditions,Clouds,dailyrainin,SoftwareType,DateUTC
2013-03-20 00:12:00,36.0,33.0,29.61,WNW,300,27.0,34.0,87,-99.99,,,-99.99,,2013-03-20 04:12:00,
2013-03-20 00:22:00,36.0,33.0,29.61,WNW,300,27.0,34.0,87,-99.99,,,-99.99,,2013-03-20 04:22:00,
2013-03-20 00:32:00,36.0,33.0,29.61,WNW,300,27.0,34.0,87,-99.99,,,-99.99,,2013-03-20 04:32:00,
2013-03-20 00:42:00,36.0,33.0,29.61,WNW,300,27.0,34.0,87,-99.99,,,-99.99,,2013-03-20 04:42:00,
2013-03-20 00:50:00,35.0,32.0,29.66,WNW,300,22.0,27.0,87,-99.99,,,-99.99,,2013-03-20 04:50:00,
2013-03-20 01:12:00,35.0,32.0,29.66,WNW,300,22.0,27.0,87,-99.99,,,-99.99,,2013-03-20 05:12:00,
2013-03-20 01:22:00,35.0,32.0,29.66,WNW,300,22.0,27.0,87,-99.99,,,-99.99,,2013-03-20 05:22:00,
2013-03-20 01:31:00,35.0,32.0,29.66,WNW,300,22.0,27.0,87,-99.99,,,-99.99,,2013-03-20 05:31:00,
2013-03-20 01:41:00,35.0,32.0,29.66,WNW,300,22.0,27.0,87,-99.99,,,-99.99,,2013-03-20 05:41:00,
2013-03-20 01:50:00,34.0,30.0,29.68,WNW,300,20.0,25.0,85,-99.99,,,-99.99,,2013-03-20 05:50:00,
2013-03-20 02:11:00,34.0,30.0,29.68,WNW,300,20.0,25.0,85,-99.99,,,-99.99,,2013-03-20 06:11:00,
2013-03-20 02:21:00,34.0,30.0,29.68,WNW,300,20.0,25.0,85,-99.99,,,-99.99,,2013-03-20 06:21:00,
2013-03-20 02:31:00,34.0,30.0,29.68,WNW,300,20.0,25.0,85,-99.99,,,-99.99,,2013-03-20 06:31:00,
2013-03-20 02:42:00,34.0,30.0,29.68,WNW,300,20.0,25.0,85,-99.99,,,-99.99,,2013-03-20 06:42:00,
2013-03-20 02:50:00,33.0,29.0,29.69,WNW,300,20.0,25.0,85,-99.99,,,-99.99,,2013-03-20 06:50:00,
2013-03-20 03:11:00,33.0,29.0,29.69,WNW,300,20.0,25.0,85,-99.99,,,-99.99,,2013-03-20 07:11:00,
2013-03-20 03:21:00,33.0,29.0,29.69,WNW,300,20.0,25.0,85,-99.99,,,-99.99,,2013-03-20 07:21:00,
2013-03-20 03:31:00,33.0,29.0,29.69,WNW,300,20.0,25.0,85,-99.99,,,-99.99,,2013-03-20 07:31:00,
2013-03-20 03:41:00,33.0,29.0,29.69,WNW,300,20.0,25.0,85,-99.99,,,-99.99,,2013-03-20 07:41:00,
2013-03-20 03:50:00,33.0,28.0,29.71,West,280,25.0,29.0,81,-99.99,,,-99.99,,2013-03-20 07:50:00,
2013-03-20 04:11:00,33.0,28.0,29.71,West,280,25.0,29.0,81,-99.99,,,-99.99,,2013-03-20 08:11:00,
2013-03-20 04:21:00,33.0,28.0,29.71,West,280,25.0,29.0,81,-99.99,,,-99.99,,2013-03-20 08:21:00,
2013-03-20 04:32:00,33.0,28.0,29.71,West,280,25.0,29.0,81,-99.99,,,-99.99,,2013-03-20 08:32:00,
2013-03-20 04:41:00,33.0,28.0,29.71,West,280,25.0,29.0,81,-99.99,,,-99.99,,2013-03-20 08:41:00,
2013-03-20 04:50:00,33.0,26.0,29.72,WNW,300,25.0,29.0,75,-99.99,,,-99.99,,2013-03-20 08:50:00,
2013-03-20 05:11:00,33.0,26.0,29.72,WNW,300,25.0,29.0,75,-99.99,,,-99.99,,2013-03-20 09:11:00,
2013-03-20 05:21:00,33.0,26.0,29.72,WNW,300,25.0,29.0,75,-99.99,,,-99.99,,2013-03-20 09:21:00,
2013-03-20 05:32:00,33.0,26.0,29.72,WNW,300,25.0,29.0,75,-99.99,,,-99.99,,2013-03-20 09:32:00,
2013-03-20 05:42:00,33.0,26.0,29.72,WNW,300,25.0,29.0,75,-99.99,,,-99.99,,2013-03-20 09:42:00,
2013-03-20 05:50:00,34.0,26.0,29.73,West,280,25.0,34.0,71,-99.99,,,-99.99,,2013-03-20 09:50:00,
2013-03-20 06:12:00,34.0,26.0,29.73,West,280,25.0,34.0,71,-99.99,,,-99.99,,2013-03-20 10:12:00,
2013-03-20 06:22:00,34.0,26.0,29.73,West,280,25.0,34.0,71,-99.99,,,-99.99,,2013-03-20 10:22:00,
2013-03-20 06:32:00,34.0,26.0,29.73,West,280,25.0,34.0,71,-99.99,,,-99.99,,2013-03-20 10:32:00,
2013-03-20 06:42:00,34.0,26.0,29.73,West,280,25.0,34.0,71,-99.99,,,-99.99,,2013-03-20 10:42:00,
2013-03-20 06:50:00,33.0,23.0,29.72,WNW,290,31.0,36.0,64,-99.99,,,-99.99,,2013-03-20 10:50:00,
2013-03-20 07:11:00,33.0,23.0,29.72,WNW,290,31.0,36.0,64,-99.99,,,-99.99,,2013-03-20 11:11:00,
2013-03-20 07:21:00,33.0,23.0,29.72,WNW,290,31.0,36.0,64,-99.99,,,-99.99,,2013-03-20 11:21:00,
2013-03-20 07:31:00,33.0,23.0,29.72,WNW,290,31.0,36.0,64,-99.99,,,-99.99,,2013-03-20 11:31:00,
2013-03-20 07:42:00,33.0,23.0,29.72,WNW,290,31.0,36.0,64,-99.99,,,-99.99,,2013-03-20 11:42:00,
2013-03-20 07:50:00,33.0,23.0,29.74,WNW,290,31.0,36.0,65,-99.99,,,-99.99,,2013-03-20 11:50:00,
2013-03-20 08:11:00,33.0,23.0,29.74,WNW,290,31.0,36.0,65,-99.99,,,-99.99,,2013-03-20 12:11:00,
2013-03-20 08:21:00,33.0,23.0,29.74,WNW,290,31.0,36.0,65,-99.99,,,-99.99,,2013-03-20 12:21:00,
2013-03-20 08:31:00,33.0,23.0,29.74,WNW,290,31.0,36.0,65,-99.99,,,-99.99,,2013-03-20 12:31:00,
2013-03-20 08:42:00,33.0,23.0,29.74,WNW,290,31.0,36.0,65,-99.99,,,-99.99,,2013-03-20 12:42:00,
2013-03-20 08:50:00,33.0,22.0,29.75,West,280,31.0,38.0,63,-99.99,,,-99.99,,2013-03-20 12:50:00,
2013-03-20 09:11:00,33.0,22.0,29.75,West,280,31.0,38.0,63,-99.99,,,-99.99,,2013-03-20 13:11:00,
2013-03-20 09:21:00,33.0,22.0,29.75,West,280,31.0,38.0,63,-99.99,,,-99.99,,2013-03-20 13:21:00,
2013-03-20 09:31:00,33.0,22.0,29.75,West,280,31.0,38.0,63,-99.99,,,-99.99,,2013-03-20 13:31:00,
2013-03-20 09:41:00,33.0,22.0,29.75,West,280,31.0,38.0,63,-99.99,,,-99.99,,2013-03-20 13:41:00,
2013-03-20 09:50:00,34.0,24.0,29.77,West,280,22.0,29.0,65,-99.99,,,-99.99,,2013-03-20 13:50:00,
2013-03-20 10:11:00,34.0,24.0,29.77,West,280,22.0,29.0,65,-99.99,,,-99.99,,2013-03-20 14:11:00,
2013-03-20 10:21:00,34.0,24.0,29.77,West,280,22.0,29.0,65,-99.99,,,-99.99,,2013-03-20 14:21:00,
2013-03-20 10:32:00,34.0,24.0,29.77,West,280,22.0,29.0,65,-99.99,,,-99.99,,2013-03-20 14:32:00,
2013-03-20 10:41:00,34.0,24.0,29.77,West,280,22.0,29.0,65,-99.99,,,-99.99,,2013-03-20 14:41:00,
2013-03-20 10:50:00,34.0,21.0,29.77,West,280,25.0,29.0,59,-99.99,,,-99.99,,2013-03-20 14:50:00,
2013-03-20 11:12:00,34.0,21.0,29.77,West,280,25.0,29.0,59,-99.99,,,-99.99,,2013-03-20 15:12:00,
2013-03-20 11:21:00,34.0,21.0,29.77,West,280,25.0,29.0,59,-99.99,,,-99.99,,2013-03-20 15:21:00,
2013-03-20 11:32:00,34.0,21.0,29.77,West,280,25.0,29.0,59,-99.99,,,-99.99,,2013-03-20 15:32:00,
2013-03-20 11:42:00,34.0,21.0,29.77,West,280,25.0,29.0,59,-99.99,,,-99.99,,2013-03-20 15:42:00,
2013-03-20 11:50:00,35.0,21.0,29.77,West,270,22.0,29.0,56,-99.99,,,-99.99,,2013-03-20 15:50:00,
2013-03-20 12:12:00,35.0,21.0,29.77,West,270,22.0,29.0,56,-99.99,,,-99.99,,2013-03-20 16:12:00,
2013-03-20 12:22:00,35.0,21.0,29.77,West,270,22.0,29.0,56,-99.99,,,-99.99,,2013-03-20 16:22:00,
2013-03-20 12:32:00,35.0,21.0,29.77,West,270,22.0,29.0,56,-99.99,,,-99.99,,2013-03-20 16:32:00,
2013-03-20 12:42:00,35.0,21.0,29.77,West,270,22.0,29.0,56,-99.99,,,-99.99,,2013-03-20 16:42:00,
2013-03-20 12:50:00,36.0,23.0,29.77,West,280,20.0,27.0,58,-99.99,,,-99.99,,2013-03-20 16:50:00,
2013-03-20 13:11:00,36.0,23.0,29.77,West,280,20.0,27.0,58,-99.99,,,-99.99,,2013-03-20 17:11:00,
2013-03-20 13:21:00,36.0,23.0,29.77,West,280,20.0,27.0,58,-99.99,,,-99.99,,2013-03-20 17:21:00,
2013-03-20 13:32:00,36.0,23.0,29.77,West,280,20.0,27.0,58,-99.99,,,-99.99,,2013-03-20 17:32:00,
2013-03-20 13:42:00,36.0,23.0,29.77,West,280,20.0,27.0,58,-99.99,,,-99.99,,2013-03-20 17:42:00,
2013-03-20 13:50:00,36.0,22.0,29.76,West,260,22.0,29.0,55,-99.99,,,-99.99,,2013-03-20 17:50:00,
2013-03-20 14:11:00,36.0,22.0,29.76,West,260,22.0,29.0,55,-99.99,,,-99.99,,2013-03-20 18:11:00,
2013-03-20 14:21:00,36.0,22.0,29.76,West,260,22.0,29.0,55,-99.99,,,-99.99,,2013-03-20 18:21:00,
2013-03-20 14:32:00,36.0,22.0,29.76,West,260,22.0,29.0,55,-99.99,,,-99.99,,2013-03-20 18:32:00,
2013-03-20 14:42:00,36.0,22.0,29.76,West,260,22.0,29.0,55,-99.99,,,-99.99,,2013-03-20 18:42:00,
2013-03-20 14:50:00,36.0,25.0,29.74,WSW,250,27.0,31.0,63,-99.99,,,-99.99,,2013-03-20 18:50:00,
2013-03-20 15:11:00,36.0,25.0,29.74,WSW,250,27.0,31.0,63,-99.99,,,-99.99,,2013-03-20 19:11:00,
2013-03-20 15:21:00,36.0,25.0,29.74,WSW,250,27.0,31.0,63,-99.99,,,-99.99,,2013-03-20 19:21:00,
2013-03-20 15:31:00,36.0,25.0,29.74,WSW,250,27.0,31.0,63,-99.99,,,-99.99,,2013-03-20 19:31:00,
2013-03-20 15:41:00,36.0,25.0,29.74,WSW,250,27.0,31.0,63,-99.99,,,-99.99,,2013-03-20 19:41:00,
2013-03-20 15:50:00,37.0,26.0,29.74,WSW,240,27.0,34.0,63,-99.99,,,-99.99,,2013-03-20 19:50:00,
2013-03-20 16:11:00,37.0,26.0,29.74,WSW,240,27.0,34.0,63,-99.99,,,-99.99,,2013-03-20 20:11:00,
2013-03-20 16:21:00,37.0,26.0,29.74,WSW,240,27.0,34.0,63,-99.99,,,-99.99,,2013-03-20 20:21:00,
2013-03-20 16:31:00,37.0,26.0,29.74,WSW,240,27.0,34.0,63,-99.99,,,-99.99,,2013-03-20 20:31:00,
2013-03-20 16:41:00,37.0,26.0,29.74,WSW,240,27.0,34.0,63,-99.99,,,-99.99,,2013-03-20 20:41:00,
2013-03-20 16:50:00,37.0,26.0,29.75,WSW,240,27.0,31.0,62,-99.99,,,-99.99,,2013-03-20 20:50:00,
2013-03-20 17:11:00,37.0,26.0,29.75,WSW,240,27.0,31.0,62,-99.99,,,-99.99,,2013-03-20 21:11:00,
2013-03-20 17:21:00,37.0,26.0,29.75,WSW,240,27.0,31.0,62,-99.99,,,-99.99,,2013-03-20 21:21:00,
2013-03-20 17:32:00,37.0,26.0,29.75,WSW,240,27.0,31.0,62,-99.99,,,-99.99,,2013-03-20 21:32:00,
2013-03-20 17:41:00,37.0,26.0,29.75,WSW,240,27.0,31.0,62,-99.99,,,-99.99,,2013-03-20 21:41:00,
2013-03-20 17:50:00,38.0,26.0,29.77,WSW,250,25.0,29.0,61,-99.99,,,-99.99,,2013-03-20 21:50:00,
2013-03-20 18:12:00,38.0,26.0,29.77,WSW,250,25.0,29.0,61,-99.99,,,-99.99,,2013-03-20 22:12:00,
2013-03-20 18:22:00,38.0,26.0,29.77,WSW,250,25.0,29.0,61,-99.99,,,-99.99,,2013-03-20 22:22:00,
2013-03-20 18:32:00,38.0,26.0,29.77,WSW,250,25.0,29.0,61,-99.99,,,-99.99,,2013-03-20 22:32:00,
2013-03-20 18:41:00,38.0,26.0,29.77,WSW,250,25.0,29.0,61,-99.99,,,-99.99,,2013-03-20 22:41:00,
2013-03-20 18:50:00,38.0,27.0,29.78,WSW,250,27.0,31.0,63,-99.99,,,-99.99,,2013-03-20 22:50:00,
2013-03-20 19:11:00,38.0,27.0,29.78,WSW,250,27.0,31.0,63,-99.99,,,-99.99,,2013-03-20 23:11:00,
2013-03-20 19:22:00,38.0,27.0,29.78,WSW,250,27.0,31.0,63,-99.99,,,-99.99,,2013-03-20 23:22:00,
2013-03-20 19:31:00,38.0,27.0,29.78,WSW,250,27.0,31.0,63,-99.99,,,-99.99,,2013-03-20 23:31:00,
2013-03-20 19:41:00,38.0,27.0,29.78,WSW,250,27.0,31.0,63,-99.99,,,-99.99,,2013-03-20 23:41:00,
2013-03-20 19:50:00,39.0,28.0,29.80,WSW,250,22.0,27.0,64,-99.99,,,-99.99,,2013-03-20 23:50:00,
2013-03-20 20:11:00,39.0,28.0,29.80,WSW,250,22.0,27.0,64,-99.99,,,-99.99,,2013-03-21 00:11:00,
2013-03-20 20:21:00,39.0,28.0,29.80,WSW,250,22.0,27.0,64,-99.99,,,-99.99,,2013-03-21 00:21:00,
2013-03-20 20:32:00,39.0,28.0,29.80,WSW,250,22.0,27.0,64,-99.99,,,-99.99,,2013-03-21 00:32:00,
2013-03-20 20:41:00,39.0,28.0,29.80,WSW,250,22.0,27.0,64,-99.99,,,-99.99,,2013-03-21 00:41:00,
2013-03-20 20:50:00,39.0,28.0,29.82,West,260,18.0,22.0,64,-99.99,,,-99.99,,2013-03-21 00:50:00,
2013-03-20 21:11:00,39.0,28.0,29.82,West,260,18.0,22.0,64,-99.99,,,-99.99,,2013-03-21 01:11:00,
2013-03-20 21:21:00,39.0,28.0,29.82,West,260,18.0,22.0,64,-99.99,,,-99.99,,2013-03-21 01:21:00,
2013-03-20 21:31:00,39.0,28.0,29.82,West,260,18.0,22.0,64,-99.99,,,-99.99,,2013-03-21 01:31:00,
2013-03-20 21:41:00,39.0,28.0,29.82,West,260,18.0,22.0,64,-99.99,,,-99.99,,2013-03-21 01:41:00,
2013-03-20 21:50:00,39.0,30.0,29.83,WSW,250,13.0,16.0,70,-99.99,,,-99.99,,2013-03-21 01:50:00,
2013-03-20 22:11:00,39.0,30.0,29.83,WSW,250,13.0,16.0,70,-99.99,,,-99.99,,2013-03-21 02:11:00,
2013-03-20 22:21:00,39.0,30.0,29.83,WSW,250,13.0,16.0,70,-99.99,,,-99.99,,2013-03-21 02:21:00,
2013-03-20 22:31:00,39.0,30.0,29.83,WSW,250,13.0,16.0,70,-99.99,,,-99.99,,2013-03-21 02:31:00,
2013-03-20 22:41:00,39.0,30.0,29.83,WSW,250,13.0,16.0,70,-99.99,,,-99.99,,2013-03-21 02:41:00,
2013-03-20 22:50:00,39.0,31.0,29.83,SW,230,11.0,16.0,72,-99.99,,,-99.99,,2013-03-21 02:50:00,
2013-03-20 23:21:00,39.0,31.0,29.83,SW,230,11.0,16.0,72,-99.99,,,-99.99,,2013-03-21 03:21:00,
2013-03-20 23:32:00,39.0,31.0,29.83,SW,230,11.0,16.0,72,-99.99,,,-99.99,,2013-03-21 03:32:00,
2013-03-20 23:42:00,39.0,31.0,29.83,SW,230,11.0,16.0,72,-99.99,,,-99.99,,2013-03-21 03:42:00,
2013-03-20 23:50:00,39.0,32.0,29.82,SW,230,11.0,16.0,74,-99.99,,,-99.99,,2013-03-21 03:50:00,